FLOCK 3K-8 (43901 NORAD) Tracking and Keplerian Element Data

This shows tracking and keplerian element data for the satellite.

Feedback or suggestion? Click here.




ElementValue
Catalog43901
NameFLOCK 3K-8
Epoch Orbit392
Epoch Day21.82719615
Epoch Year2019
RAAN291.0295
Inclination97.2994
Eccentricity0.0023516
Argument of Perigee150.3729
Mean Anonmoly209.8846
Mean Motion15.23627672
Decay Rate6.02E-06
L11 43901U 18111AB 19021.82719615 .00000602 00000-0 27869-4 0 9995
L22 43901 97.2994 291.0295 0023516 150.3729 209.8846 15.23627672 3923

Live tracking and technical data element details for FLOCK 3K-8 (NORAD 43901). FLOCK 3K-8 can be tracked NOW for your location showing map with azimuth and elevation plus other details from your city location.

Track the satellite on the map from your city or location and see movement details for azimuth, elevation, latitude, longitude, range, height, and movement on the map or in text.







IsCatalogInMostPopularTable: catalog: 43901, numindb: 23
Update: records affected: 1



GetName: 43901 FLOCK 3K-8

Hit Count: updated at: Wed, 23 Jan 2019 02:40:29 GMT